Hourly Data Report for June 03, 2021

VINELAND STATION RCS
ONTARIO
Current Station Operator: ECCC - MSC

43°11'00.000" N
79°24'00.000" W
79.20 m
6139148
71171
XVN

Download Data

Hourly Data (June 2021)
Hourly Data Report for June 3, 2021
TIME
LST
Temp Definition
°C
Dew Point Definition
°C
Rel Hum Definition
%
Precip. Amount Definition
mm

Wind Dir Definition
10's deg

Wind Spd Definition
km/h
Visibility Definition
km
Stn Press Definition
kPa
Hmdx Definition


Wind Chill Definition


Weather Definition


00:00 15.3 14.3 94 1.8 12 2   100.56     LegendNANA
01:00 14.9 14.2 95 0.2 10 5   100.47     LegendNANA
02:00 14.8 14.2 96 0.0 9 2   100.40     LegendNANA
03:00 15.8 15.3 97 0.1 14 3   100.35     LegendNANA
04:00 16.3 15.8 97 3.4 16 5   100.30     LegendNANA
05:00 16.1 15.5 96 2.7 6 3   100.25     LegendNANA
06:00 15.7 15.2 97 3.5 4 1   100.25     LegendNANA
07:00 15.5 15.0 97 1.9 3 2   100.24     LegendNANA
08:00 15.9 15.4 97 1.9 5 2   100.25     LegendNANA
09:00 16.6 16.1 97 2.2 3 2   100.21     LegendNANA
10:00 15.5 14.8 96 0.0 36 4   100.19     LegendNANA
11:00 14.5 13.9 96 0.0 31 5   100.25     LegendNANA
12:00 15.4 14.8 96 0.0 30 4   100.23     LegendNANA
13:00 15.6 15.0 96 0.0 26 2   100.22     LegendNANA
14:00 17.5 15.2 86 0.0 7 6   100.14     LegendNANA
15:00 19.7 17.3 86 0.0 5 3   100.10     LegendNANA
16:00 19.7 16.7 83 0.0 6 3   100.05     LegendNANA
17:00 21.9 17.5 76 0.0 22 12   100.04 28   LegendNANA
18:00 21.3 16.0 72 0.0 20 17   100.02 26   LegendNANA
19:00 20.2 15.6 75 0.0 20 15   100.05 25   LegendNANA
20:00 18.3 15.0 81 0.0 21 14   100.05     LegendNANA
21:00 17.4 14.5 83 0.0 21 13   100.09     LegendNANA
22:00 17.8 14.5 81 0.0 21 15   100.13     LegendNANA
23:00 17.1 14.5 85 0.0 22 15   100.15     LegendNANA

Notes on Data Quality.

Legend

  • E = Estimated
  • M = Missing
  • NA = Not Available*
  • [empty] = Indicates an unobserved value
Date modified: